Etusivu
METAR-TAF:

METAR-TAF

Lentoasemat :

Bowers Field

Ellensburg, Washington, Yhdysvallat

Leveyspiiri: 47-02-01N, Pituuspiiri: 120-31-45W, korkeus merenpinnasta: 536 m

Tämänhetkinen sää

Tämä raportti tehtiin 22 minuuttia sitten, kello 12.53 UTC
tyyntä
Lämpötila 5°C
Kosteus 87%
Ilmanpaine 1024 hPa
Näkyvyys: 16.1 km
selkeää

METAR: KELN 291253Z AUTO 00000KT 10SM CLR 05/03 A3024 RMK AO2 SLP239 T00500028

Aika: 06:15 (13:15 UTC)


TAF: puuttuu

Säähavainnot ja -ennusteet yli 4000 lentoasemalta (METAR- ja TAF-raportit).

Käytössä olevat sääasemat on merkitty karttaan keltaisilla ja punaisilla pisteillä.

Aseta hiiri pisteen päälle nähdäksesi sääaseman nimen.

Klikkaa sitten nähdäksesi säähavainnot ja -ennusteet.

Kartan vaihtaminen: klikkaa mustalla rastilla varustettuja vihreitä pisteitä, niin voit zoomata sisään; viivalla varustettua vihreää pistettä, niin voit zoomata ulos tai vihreitä nuolia, niin pääset viereisille kartoille.


METAR-TAF: